Flag for U.S.A. Weather past 2 weeks in Nashville, Tennessee, U.S.A.

Now
78 °F

Overcast.


Feels Like: 81 °F
Forecast: 69 / 77 °F
Wind: 8 mph from Southwest

Location: Nashville International Airport

Current Time: Jul 2, 2015 at 1:57:05 PM

Latest Report: Jul 2, 2015 at 12:53 PM


Visibility: 10 mi

Pressure: 29.91 "Hg

Humidity: 84%

Dew point: 73 °F

Location of NashvilleLocation

Historic Weather in Nashville — Graph

°F

Nashville temperature yesterday

Maximum temperature yesterday: 77 °F (at 11:53 AM)
Minimum temperature yesterday: 68 °F (at 10:53 PM)
Average temperature yesterday: 73 °F

Past Weeks' High & Low Weather Summary

 TemperatureHumidityPressure
High94 °F (Jun 25, 4:53 PM)100% (Jun 20, 4:53 AM)30.16 "Hg (Jun 20, 4:53 AM)
Low61 °F (Jun 28, 4:53 AM)34% (Jun 28, 2:53 PM)29.82 "Hg (Jun 20, 2:53 AM)
Average79 °F79%29.98 "Hg
* Reported Jun 17 12:53 PM — Jul 2 12:53 PM, Nashville, Weather by CustomWeather, © 2015

Note: Actual official high and low records may vary slightly from our data, if they occured in-between our weather recording intervals... More about our weather records

Advertising

Nashville weather history for previous 24 hours

 ConditionsComfort  
Time TempWeatherWind HumidityBarometerVisibility
12:53 PM
Thu, Jul 2
78 °FOvercast.8 mph84%29.91 "Hg10 mi
11:53 AM76 °FBroken clouds.9 mph88%29.91 "Hg10 mi
10:53 AM74 °FPartly sunny.10 mph94%29.92 "Hg10 mi
9:53 AM71 °FLight rain. Fog.7 mph100%29.93 "Hg6 mi
8:53 AM70 °FLight rain. Fog.5 mph100%29.93 "Hg6 mi
7:53 AM70 °FHeavy rain. Fog.3 mph100%29.92 "Hg1 mi
6:53 AM70 °FLight rain. Cloudy.No wind100%29.93 "Hg7 mi
6:02 AM72 °FFog.14 mph100%29.92 "Hg6 mi
5:55 AM72 °FPartly sunny.6 mph100%29.89 "Hg7 mi
4:53 AM71 °FLight rain. Fog.3 mph100%29.88 "Hg5 mi
3:53 AM71 °FMostly cloudy.5 mph100%29.89 "Hg8 mi
3:03 AM72 °FOvercast.6 mph100%29.91 "Hg8 mi
2:53 AM71 °FOvercast.6 mph100%29.89 "Hg9 mi
1:53 AM71 °FThunderstorms. Overcast.7 mph100%29.91 "Hg8 mi
12:53 AM69 °FThunderstorms. Fog.8 mph100%29.95 "Hg4 mi
11:53 PM
Wed, Jul 1
69 °FLight rain. Fog.9 mph100%29.94 "Hg6 mi
10:53 PM68 °FPartly cloudy.7 mph100%29.96 "Hg10 mi
9:53 PM70 °FPassing clouds.8 mph97%29.96 "Hg10 mi
8:53 PM70 °FPartly cloudy.8 mph97%29.96 "Hg10 mi
7:53 PM70 °FBroken clouds.5 mph97%29.97 "Hg10 mi
6:53 PM71 °FMostly cloudy.7 mph93%29.96 "Hg10 mi
5:53 PM72 °FMostly cloudy.6 mph93%29.94 "Hg10 mi
4:53 PM73 °FBroken clouds.12 mph90%29.93 "Hg10 mi
3:53 PM72 °FBroken clouds.10 mph93%29.96 "Hg10 mi
2:53 PM71 °FCloudy.9 mph100%29.96 "Hg10 mi
1:53 PM70 °FThunderstorms. Fog.5 mph100%29.99 "Hg3 mi
Weather by CustomWeather, © 2015

See weather overviewHow to use our weather pages